Location: Gradaro
(45.0833°N, 10.8833°E)
Time: 05:34:37
(UTC+00:00)

FENGYUN 1C DEB - Pass Details

Date: 28 June 2021
Orbit: 744 x 851 km, 99.4° (Epoch: 19 July)

Event Time Altitude Azimuth Distance (km) Brightness Sun altitude
Exits shadow 00:24:49 34° 227° (SW) 1,314 ? -20.0°
Maximum altitude 00:26:09 40° 261° (W) 1,183 ? -20.0°
Drops below altitude 10° 00:31:07 10° 331° (NNW) 2,384 ? -19.7°
Sets 00:33:34 0° 338° (NNW) 3,301 ? -19.6°
